Location: Copper Breaks State Park
(34.1132°N, 99.7492°W)
Time: 00:02:58
(UTC-05:00)

Amateur Radio Satellites - All Passes

Search period start: 20 April 2015 23:32
Search period end: 21 April 2015 23:32
Location: Copper Breaks State Park, 34.1132°N, 99.7492°W

Satellite Date Start Highest point End Downlink Frequencies (MHz)
Time Altitude Azimuth
DELFI C3 20 Apr 23:35:59 23:39:12 22° 265° (W) 23:42:20 145.870
ZACube-1 20 Apr 23:37:20 23:41:12 32° 264° (W) 23:45:06 437.345
AISAT 20 Apr 23:38:09 23:42:31 68° 76° (ENE) 23:46:53 437.250
ANTELSAT 20 Apr 23:42:11 23:46:28 35° 97° (E) 23:50:45 437.575/2403.000
CUBEBUG 1 20 Apr 23:44:37 23:48:28 33° 73° (ENE) 23:52:22 437.445
YUBILEINY 20 Apr 23:44:41 23:53:29 81° 83° (E) 00:02:12 435.215
QB50P2 20 Apr 23:45:33 23:48:12 16° 93° (E) 23:51:00 145.880/145.840
CUBEBUG 2 20 Apr 23:49:54 23:52:33 15° 269° (W) 23:55:03 437.445
PHONESAT 2.4 20 Apr 23:51:42 23:54:54 29° 6° (N) 23:58:05 2401.200-2431.200
Oscar 11 20 Apr 23:52:12 23:54:01 12° 270° (W) 23:55:34 145.826/435.025
ESTCUBE 1 20 Apr 23:57:52 00:02:18 56° 75° (ENE) 00:06:44 437.505/2401.250
NANOSAT C BR1 21 Apr 00:06:46 00:10:28 28° 96° (E) 00:14:12 145.865
POPSAT HIP 1 21 Apr 00:07:23 00:11:06 29° 96° (E) 00:14:54 437.405
DX 1 21 Apr 00:14:49 00:17:58 19° 266° (W) 00:20:59 434.975-435.025
HUMSAT D 21 Apr 00:17:24 00:20:47 23° 265° (W) 00:24:07 437.325/437.525
VERMONT LUNAR 21 Apr 00:17:52 00:21:12 56° 20° (NNE) 00:24:30 437.305
POLYITAN 1 21 Apr 00:34:08 00:38:26 65° 101° (E) 00:42:43 437.675
TIGRISAT 21 Apr 00:34:56 00:39:37 60° 285° (WNW) 00:44:13 435.000
UNISAT 6 21 Apr 00:36:44 00:41:23 56° 285° (WNW) 00:45:56 437.425
SO-50 21 Apr 00:39:12 00:41:38 13° 251° (WSW) 00:43:47 436.795
O/OREOS (USA 219) 21 Apr 00:40:53 00:45:17 45° 293° (WNW) 00:49:42 437.305
DUCHIFAT 1 21 Apr 00:42:00 00:46:18 78° 103° (ESE) 00:50:34 145.980
50 SAT 21 Apr 00:46:22 00:48:54 16° 267° (W) 00:51:18 437.505
QB50P1 21 Apr 00:55:55 01:00:11 68° 284° (WNW) 01:04:27 145.935-145.965
BUGSAT 1 21 Apr 01:01:05 01:05:13 87° 285° (WNW) 01:09:23 437.445
VELOX 1 21 Apr 01:01:22 01:03:44 14° 268° (W) 01:05:51 145.980
TISAT 1 21 Apr 01:16:13 01:20:23 79° 77° (ENE) 01:24:35 437.305
ANTELSAT 21 Apr 01:19:34 01:23:02 20° 291° (WNW) 01:26:20 437.575/2403.000
QB50P2 21 Apr 01:20:20 01:24:13 33° 287° (WNW) 01:28:04 145.880/145.840
CUBEBUG 1 21 Apr 01:22:02 01:24:57 17° 267° (W) 01:27:42 437.445
Cosmos 2491 21 Apr 01:24:01 01:32:09 41° 285° (WNW) 01:40:14 435.465 / 435.565
SPROUT 21 Apr 01:26:02 01:30:15 61° 259° (W) 01:34:29 437.525
PHONESAT 2.4 21 Apr 01:29:56 01:33:30 70° 21° (NNE) 01:37:02 2401.200-2431.200
RS-15 21 Apr 01:31:24 01:43:03 76° 59° (ENE) 01:55:12 29.354- 29.394
ESTCUBE 1 21 Apr 01:38:24 01:39:35 11° 270° (W) 01:40:27 437.505/2401.250
NANOSAT C BR1 21 Apr 01:43:00 01:46:09 20° 290° (WNW) 01:49:11 145.865
POPSAT HIP 1 21 Apr 01:43:42 01:46:50 19° 290° (WNW) 01:49:50 437.405
YUBILEINY 21 Apr 01:44:09 01:49:25 17° 278° (W) 01:54:04 435.215
VERMONT LUNAR 21 Apr 01:55:44 01:58:35 25° 214° (SW) 02:01:22 437.305
Cosmos 2504 21 Apr 01:56:23 02:04:17 53° 78° (ENE) 02:11:38 435.465 / 435.565
ITUPSAT 1 21 Apr 02:00:22 02:04:40 34° 72° (ENE) 02:09:01 437.325
Oscar 19 21 Apr 02:29:10 02:33:45 32° 96° (E) 02:38:23 437.125/150
BEESAT 21 Apr 02:34:09 02:38:56 83° 76° (ENE) 02:43:45 436.000
AIST 1 21 Apr 02:35:18 02:39:34 55° 278° (W) 02:43:49
SWISSCUBE 21 Apr 02:35:43 02:40:32 86° 257° (WSW) 02:45:21 437.505
Gurwin Techsat 1B 21 Apr 02:52:34 02:54:33 12° 90° (E) 02:56:53 435.225
ITAMSAT 1 21 Apr 02:53:22 02:56:06 15° 91° (E) 02:59:08 435.822/435.867
PHONESAT 2.4 21 Apr 03:08:47 03:11:33 21° 216° (SW) 03:14:16 2401.200-2431.200
JUGNU 21 Apr 03:14:18 03:16:03 11° 165° (SSE) 03:17:55 437.505
STARS 21 Apr 03:27:16 03:31:04 31° 72° (ENE) 03:34:59 437.465
ITUPSAT 1 21 Apr 03:39:03 03:42:39 20° 266° (W) 03:46:07 437.325
RS-15 21 Apr 03:45:28 03:54:44 26° 255° (WSW) 04:03:36 29.354- 29.394
Cosmos 2504 21 Apr 03:50:54 03:57:12 25° 275° (W) 04:02:54 435.465 / 435.565
KKS-1 21 Apr 03:55:34 03:59:58 71° 259° (W) 04:04:25 437.445
GONETS M04 21 Apr 04:07:19 04:14:07 25° 69° (ENE) 04:21:14
Oscar 19 21 Apr 04:08:42 04:13:00 26° 290° (WNW) 04:17:10 437.125/150
BEESAT 2 21 Apr 04:26:07 04:29:54 38° 114° (ESE) 04:33:46 435.950
Gurwin Techsat 1B 21 Apr 04:29:48 04:35:04 65° 286° (WNW) 04:40:18 435.225
ITAMSAT 1 21 Apr 04:30:57 04:36:00 53° 287° (WNW) 04:41:00 435.822/435.867
CUSAT 1 21 Apr 04:31:19 04:36:18 20° 70° (ENE) 04:42:06 437.405
BEESAT 3 21 Apr 04:31:20 04:35:17 55° 116° (ESE) 04:39:20 437.485
HORYU 2 21 Apr 04:34:31 04:38:15 26° 96° (E) 04:42:01 437.375
DANDE 21 Apr 04:36:39 04:40:51 17° 69° (ENE) 04:45:57 436.750
AIST 2 21 Apr 04:54:45 04:58:08 24° 112° (ESE) 05:01:39 435.215
JUGNU 21 Apr 05:00:28 05:04:24 18° 174° (S) 05:08:19 437.505
SRMSAT 21 Apr 05:01:44 05:03:49 12° 166° (SSE) 05:06:01 437.500
STARS 21 Apr 05:04:30 05:07:37 18° 266° (W) 05:10:37 437.465
MOZHAYETS 4 21 Apr 05:21:00 05:25:31 55° 75° (ENE) 05:30:05
AO-7 21 Apr 05:22:30 05:30:33 53° 102° (ESE) 05:38:39 29.400- 29.500
M-CUBED/EXP-1 PRIME 21 Apr 05:28:38 05:30:04 12° 61° (ENE) 05:31:49 437.505
JAS-2 21 Apr 05:45:27 05:52:00 82° 102° (ESE) 05:57:44 435.910
GONETS M04 21 Apr 06:02:56 06:11:38 61° 268° (W) 06:20:13
BEESAT 2 21 Apr 06:05:26 06:08:13 17° 310° (NW) 06:10:53 435.950
HORYU 2 21 Apr 06:11:10 06:14:48 24° 290° (WNW) 06:18:20 437.375
BEESAT 3 21 Apr 06:11:49 06:13:43 13° 313° (NW) 06:15:28 437.485
CUSAT 1 21 Apr 06:12:10 06:19:35 78° 263° (W) 06:27:55 437.405
AUBIESAT-1 21 Apr 06:13:00 06:17:03 30° 67° (ENE) 06:21:16 437.475
DANDE 21 Apr 06:17:27 06:24:42 87° 263° (W) 06:33:13 436.750
STRAND 1 21 Apr 06:26:44 06:27:16 10° 64° (ENE) 06:28:08 437.568
AIST 2 21 Apr 06:33:01 06:36:39 26° 307° (NW) 06:40:16 435.215
Cosmos 2499 21 Apr 06:33:37 06:40:34 34° 73° (ENE) 06:47:12 435.465 / 435.565
CUBESAT XI-V 21 Apr 06:43:32 06:47:32 30° 72° (ENE) 06:51:37 437.345
CUTE-I 21 Apr 06:44:14 06:46:38 13° 90° (E) 06:49:21 437.470
SRMSAT 21 Apr 06:48:19 06:52:19 19° 175° (S) 06:56:20 437.500
JUGNU 21 Apr 06:48:44 06:52:45 19° 184° (S) 06:56:44 437.505
Cubesat XI-IV 21 Apr 06:51:35 06:54:48 17° 92° (E) 06:58:16 437.490
M-CUBED/EXP-1 PRIME 21 Apr 06:59:40 07:04:20 74° 254° (WSW) 07:09:12 437.505
MOZHAYETS 4 21 Apr 07:01:22 07:03:09 12° 270° (W) 07:04:37
AO-7 21 Apr 07:15:57 07:23:02 31° 297° (WNW) 07:29:55 29.400- 29.500
JAS-2 21 Apr 07:33:05 07:36:08 13° 300° (WNW) 07:38:42 435.910
AUBIESAT-1 21 Apr 07:47:55 07:51:48 25° 261° (W) 07:55:42 437.475
PRISM 21 Apr 07:51:15 07:55:25 65° 258° (WSW) 07:59:34 437.425
CUSAT 1 21 Apr 07:58:34 08:01:50 12° 274° (W) 08:04:31 437.405
STRAND 1 21 Apr 08:00:46 08:05:54 81° 257° (WSW) 08:11:02 437.568
DANDE 21 Apr 08:03:33 08:07:39 15° 272° (W) 08:11:24 436.750
CUBESAT XI-V 21 Apr 08:21:24 08:25:02 21° 266° (W) 08:28:30 437.345
CUTE-I 21 Apr 08:21:57 08:27:11 60° 286° (WNW) 08:32:24 437.470
Cosmos 2499 21 Apr 08:26:41 08:33:44 37° 272° (W) 08:40:13 435.465 / 435.565
Cubesat XI-IV 21 Apr 08:30:06 08:35:14 49° 287° (WNW) 08:40:20 437.490
BRITE-PL 21 Apr 08:36:41 08:38:36 12° 91° (E) 08:40:54 437.365/2234.400
SRMSAT 21 Apr 08:36:48 08:40:50 19° 185° (S) 08:44:51 437.500
JUGNU 21 Apr 08:38:38 08:41:05 13° 193° (SSW) 08:43:25 437.505
HO-68 21 Apr 08:46:21 08:46:47 10° 87° (E) 08:47:57 435.675
GOMX 1 21 Apr 08:51:00 08:52:04 11° 89° (E) 08:53:33 467.674
PCSat 21 Apr 09:02:43 09:06:13 18° 106° (ESE) 09:09:57 145.827
O/OREOS (USA 219) 21 Apr 09:16:45 09:19:14 15° 58° (ENE) 09:21:54 437.305
CUTE 1.7 + AOD 2 21 Apr 09:17:51 09:19:24 12° 90° (E) 09:21:13 437.475
CINEMA 3 21 Apr 09:36:52 09:37:05 10° 88° (E) 09:37:42 145.822/145.860
AAUSAT CUBESAT 2 21 Apr 09:37:49 09:38:56 11° 90° (E) 09:40:20 437.432
Cosmos 2491 21 Apr 09:44:42 09:48:26 14° 62° (ENE) 09:52:55 435.465 / 435.565
DOVE 4 21 Apr 09:49:00 09:53:28 31° 96° (E) 09:58:09 437.250
Oscar 11 21 Apr 10:06:49 10:08:05 11° 90° (E) 10:09:38 145.826/435.025
CUBEBUG 2 21 Apr 10:08:39 10:10:03 11° 89° (E) 10:11:47 437.445
BRITE-PL 21 Apr 10:12:30 10:17:28 64° 284° (WNW) 10:22:47 437.365/2234.400
COMPASS 1 21 Apr 10:23:57 10:28:04 52° 99° (E) 10:32:09 437.405
GOMX 1 21 Apr 10:25:35 10:30:38 73° 283° (WNW) 10:35:58 467.674
SRMSAT 21 Apr 10:27:00 10:29:20 12° 194° (SSW) 10:31:34 437.500
HO-68 21 Apr 10:28:29 10:35:42 81° 104° (ESE) 10:42:53 435.675
ANTELSAT 21 Apr 10:38:22 10:41:32 20° 69° (ENE) 10:44:54 437.575/2403.000
SEEDS 21 Apr 10:41:29 10:45:45 73° 284° (WNW) 10:49:57 437.485
CANX-2 21 Apr 10:41:32 10:45:43 53° 285° (WNW) 10:49:52 2200.000
UWE-3 21 Apr 10:43:26 10:47:09 24° 94° (E) 10:50:58 435.000/436.395/437.385
PCSat 21 Apr 10:44:04 10:49:18 49° 300° (WNW) 10:54:33 145.827
YUBILEINY 21 Apr 10:48:05 10:53:07 18° 82° (E) 10:58:42 435.215
CUTE 1.7 + AOD 2 21 Apr 10:51:32 10:55:37 44° 286° (WNW) 10:59:40 437.475
O/OREOS (USA 219) 21 Apr 10:54:41 10:58:57 43° 255° (WSW) 11:03:09 437.305
NANOSAT C BR1 21 Apr 10:57:21 10:59:25 14° 69° (ENE) 11:01:41 145.865
POPSAT HIP 1 21 Apr 10:58:09 11:00:18 14° 69° (ENE) 11:02:39 437.405
FUNcube-1 21 Apr 11:06:04 11:10:11 32° 96° (E) 11:14:19 145.935
CINEMA 3 21 Apr 11:09:51 11:14:49 72° 283° (WNW) 11:19:49 145.822/145.860
AAUSAT CUBESAT 2 21 Apr 11:10:51 11:14:53 46° 285° (WNW) 11:18:52 437.432
DELFI C3 21 Apr 11:18:13 11:22:15 66° 101° (E) 11:26:15 145.870
VELOX 1 21 Apr 11:19:43 11:20:34 11° 90° (E) 11:21:45 145.980
UKube-1 21 Apr 11:20:05 11:23:38 25° 96° (E) 11:27:14 .
POLYITAN 1 21 Apr 11:23:57 11:27:35 29° 72° (ENE) 11:31:17 437.675
DOVE 4 21 Apr 11:26:54 11:31:06 26° 288° (WNW) 11:35:19 437.250
ZACube-1 21 Apr 11:29:03 11:33:38 62° 100° (E) 11:38:11 437.345
TIGRISAT 21 Apr 11:29:44 11:34:07 76° 77° (ENE) 11:38:40 435.000
DUCHIFAT 1 21 Apr 11:31:01 11:34:47 34° 73° (ENE) 11:38:37 145.980
UNISAT 6 21 Apr 11:31:42 11:36:07 82° 79° (E) 11:40:42 437.425
AISAT 21 Apr 11:33:46 11:36:40 17° 93° (E) 11:39:44 437.250
Cosmos 2491 21 Apr 11:38:04 11:46:56 83° 83° (E) 11:55:48 435.465 / 435.565
Oscar 11 21 Apr 11:40:24 11:44:36 49° 286° (WNW) 11:48:46 145.826/435.025
CUBEBUG 2 21 Apr 11:42:28 11:47:10 59° 285° (WNW) 11:51:51 437.445
QB50P1 21 Apr 11:44:55 11:48:59 53° 75° (ENE) 11:53:07 145.935-145.965
BUGSAT 1 21 Apr 11:47:47 11:51:29 36° 74° (ENE) 11:55:13 437.445
ESTCUBE 1 21 Apr 11:55:43 11:58:20 16° 92° (E) 12:01:09 437.505/2401.250
COMPASS 1 21 Apr 12:02:10 12:03:21 11° 292° (WNW) 12:04:16 437.405
HUMSAT D 21 Apr 12:04:14 12:08:35 74° 101° (E) 12:12:53 437.325/437.525
DX 1 21 Apr 12:05:21 12:09:43 84° 287° (WNW) 12:14:06 434.975-435.025
QB50P2 21 Apr 12:09:03 12:13:14 74° 259° (WSW) 12:17:28 145.880/145.840
ANTELSAT 21 Apr 12:14:09 12:18:08 31° 264° (W) 12:22:10 437.575/2403.000
HO-68 21 Apr 12:18:14 12:22:43 17° 299° (WNW) 12:26:50 435.675
UWE-3 21 Apr 12:19:38 12:23:40 28° 288° (WNW) 12:27:38 435.000/436.395/437.385
50 SAT 21 Apr 12:25:35 12:29:40 82° 104° (ESE) 12:33:41 437.505
NANOSAT C BR1 21 Apr 12:31:01 12:34:58 40° 262° (W) 12:38:55 145.865
POPSAT HIP 1 21 Apr 12:31:57 12:35:53 38° 262° (W) 12:39:50 437.405
YUBILEINY 21 Apr 12:40:14 12:49:05 79° 278° (W) 12:57:57 435.215
FUNcube-1 21 Apr 12:42:53 12:46:19 20° 290° (WNW) 12:49:36 145.935
AIST 1 21 Apr 12:46:53 12:50:15 23° 76° (ENE) 12:53:42
VELOX 1 21 Apr 12:53:12 12:57:32 54° 285° (WNW) 13:01:51 145.980
BEESAT 3 21 Apr 12:55:23 12:57:03 12° 47° (NE) 12:58:54 437.485
UKube-1 21 Apr 12:56:13 12:59:41 23° 290° (WNW) 13:03:02 .
POLYITAN 1 21 Apr 13:00:36 13:03:34 18° 267° (W) 13:06:24 437.675
TISAT 1 21 Apr 13:05:43 13:08:22 17° 93° (E) 13:11:09 437.305
SO-50 21 Apr 13:07:31 13:11:52 45° 114° (ESE) 13:16:25 436.795
ZACube-1 21 Apr 13:08:01 13:09:31 11° 293° (WNW) 13:10:45 437.345
DUCHIFAT 1 21 Apr 13:08:12 13:10:46 15° 268° (W) 13:13:09 145.980
AISAT 21 Apr 13:09:21 13:13:23 34° 287° (WNW) 13:17:23 437.250
CUBEBUG 1 21 Apr 13:12:50 13:17:10 70° 284° (WNW) 13:21:30 437.445
SPROUT 21 Apr 13:16:45 13:20:31 29° 96° (E) 13:24:20 437.525
BUGSAT 1 21 Apr 13:25:12 13:27:10 13° 268° (W) 13:28:55 437.445
ESTCUBE 1 21 Apr 13:31:14 13:35:24 38° 287° (WNW) 13:39:31 437.505/2401.250
Cosmos 2491 21 Apr 13:37:39 13:42:54 16° 278° (W) 13:47:32 435.465 / 435.565
Oscar 19 21 Apr 13:42:29 13:46:57 32° 71° (ENE) 13:51:31 437.125/150
RS-15 21 Apr 13:48:06 13:49:49 11° 100° (E) 13:52:50 29.354- 29.394
ITUPSAT 1 21 Apr 14:06:56 14:08:23 12° 90° (E) 14:10:09 437.325
ITAMSAT 1 21 Apr 14:07:58 14:11:06 17° 67° (ENE) 14:14:26 435.822/435.867
Gurwin Techsat 1B 21 Apr 14:10:01 14:12:48 15° 66° (ENE) 14:15:52 435.225
ISS 21 Apr 14:19:29 14:22:44 68° 319° (NW) 14:25:58 145.825
AIST 1 21 Apr 14:24:32 14:27:50 21° 270° (W) 14:31:01
BEESAT 2 21 Apr 14:26:33 14:30:40 80° 244° (WSW) 14:34:42 435.950
Cosmos 2504 21 Apr 14:28:23 14:36:44 52° 91° (E) 14:45:16 435.465 / 435.565
BEESAT 3 21 Apr 14:31:28 14:35:28 55° 245° (WSW) 14:39:23 437.485
BEESAT 21 Apr 14:38:43 14:42:46 28° 96° (E) 14:46:54 436.000
SWISSCUBE 21 Apr 14:40:16 14:44:30 32° 97° (E) 14:48:46 437.505
TISAT 1 21 Apr 14:40:26 14:44:15 32° 287° (WNW) 14:48:02 437.305
YUBILEINY 21 Apr 14:43:42 14:47:39 13° 298° (WNW) 14:50:51 435.215
SO-50 21 Apr 14:49:19 14:52:42 19° 312° (NW) 14:56:01 436.795
SPROUT 21 Apr 14:53:17 14:56:26 19° 290° (WNW) 14:59:28 437.525
AIST 2 21 Apr 14:57:31 15:01:44 66° 60° (ENE) 15:05:51 435.215
Oscar 19 21 Apr 15:22:06 15:26:20 25° 265° (W) 15:30:29 437.125/150
HORYU 2 21 Apr 15:30:17 15:32:55 16° 68° (ENE) 15:35:46 437.375
ITUPSAT 1 21 Apr 15:42:02 15:46:44 57° 285° (WNW) 15:51:22 437.325
ITAMSAT 1 21 Apr 15:45:12 15:50:14 50° 260° (W) 15:55:17 435.822/435.867
Gurwin Techsat 1B 21 Apr 15:47:07 15:52:21 59° 259° (W) 15:57:36 435.225
RS-15 21 Apr 15:49:54 16:00:40 72° 115° (ESE) 16:11:37 29.354- 29.394
KKS-1 21 Apr 15:50:48 15:54:41 29° 96° (E) 15:58:37 437.445
JAS-2 21 Apr 15:51:55 15:58:16 29° 67° (ENE) 16:04:49 435.910
BEESAT 21 Apr 16:16:39 16:20:31 24° 290° (WNW) 16:24:16 436.000
AO-7 21 Apr 16:17:18 16:25:11 52° 68° (ENE) 16:33:08 29.400- 29.500
SWISSCUBE 21 Apr 16:18:33 16:22:12 22° 291° (WNW) 16:25:42 437.505
Cosmos 2504 21 Apr 16:22:50 16:30:32 31° 288° (WNW) 16:38:04 435.465 / 435.565
STARS 21 Apr 16:56:23 17:00:50 76° 285° (WNW) 17:05:16 437.465
GONETS M04 21 Apr 17:03:38 17:10:56 32° 87° (E) 17:18:32
HORYU 2 21 Apr 17:05:05 17:09:17 39° 262° (W) 17:13:30 437.375
MOZHAYETS 4 21 Apr 17:21:08 17:24:04 17° 92° (E) 17:27:11
KKS-1 21 Apr 17:27:44 17:31:11 21° 290° (WNW) 17:34:29 437.445
JAS-2 21 Apr 17:35:19 17:42:55 55° 261° (W) 17:50:32 435.910
CUTE-I 21 Apr 18:02:28 18:05:39 17° 67° (ENE) 18:09:05 437.470
RS-15 21 Apr 18:04:38 18:14:06 31° 318° (NW) 18:23:30 29.354- 29.394
Cubesat XI-IV 21 Apr 18:10:03 18:13:48 20° 68° (ENE) 18:17:43 437.490
AO-7 21 Apr 18:11:09 18:18:17 30° 264° (W) 18:25:12 29.400- 29.500
VERMONT LUNAR 21 Apr 18:33:30 18:36:38 35° 148° (SSE) 18:39:47 437.305
M-CUBED/EXP-1 PRIME 21 Apr 18:48:21 18:49:31 11° 93° (E) 18:50:55 437.505
MOZHAYETS 4 21 Apr 18:57:15 19:01:28 36° 287° (WNW) 19:05:36
GONETS M04 21 Apr 18:59:11 19:07:32 47° 283° (WNW) 19:15:54
Cosmos 2499 21 Apr 19:04:05 19:11:39 35° 88° (E) 19:19:24 435.465 / 435.565
CUSAT 1 21 Apr 19:19:21 19:22:10 32° 286° (WNW) 19:25:38 437.405
DANDE 21 Apr 19:29:13 19:31:52 33° 285° (WNW) 19:35:05 436.750
AUBIESAT-1 21 Apr 19:32:50 19:36:42 36° 101° (E) 19:40:17 437.475
PCSat 21 Apr 19:35:30 19:40:51 59° 61° (ENE) 19:46:11 145.827
PRISM 21 Apr 19:38:10 19:41:20 22° 95° (E) 19:44:34 437.425
CUTE-I 21 Apr 19:40:09 19:45:21 53° 260° (W) 19:50:33 437.470
Cubesat XI-IV 21 Apr 19:48:34 19:53:38 43° 261° (W) 19:58:41 437.490
PHONESAT 2.4 21 Apr 19:53:44 19:57:15 55° 151° (SSE) 20:00:47 2401.200-2431.200
VERMONT LUNAR 21 Apr 20:10:50 20:14:07 45° 343° (NNW) 20:17:24 437.305
STRAND 1 21 Apr 20:15:15 20:20:08 46° 99° (E) 20:25:02 437.568
CUBESAT XI-V 21 Apr 20:20:36 20:25:10 64° 284° (WNW) 20:29:43 437.345
M-CUBED/EXP-1 PRIME 21 Apr 20:20:42 20:24:50 46° 291° (WNW) 20:28:36 437.505
RS-15 21 Apr 20:28:38 20:31:52 11° 351° (N) 20:34:55 29.354- 29.394
ISS 21 Apr 20:50:08 20:52:48 23° 34° (NE) 20:55:30 145.825
DOVE 4 21 Apr 20:52:44 20:55:23 17° 69° (ENE) 20:58:15 437.250
HO-68 21 Apr 20:52:59 20:59:33 41° 68° (ENE) 21:06:14 435.675
Cosmos 2499 21 Apr 20:56:09 21:04:37 47° 283° (WNW) 21:12:57 435.465 / 435.565
AUBIESAT-1 21 Apr 21:08:36 21:11:10 15° 298° (WNW) 21:13:29 437.475
COMPASS 1 21 Apr 21:12:10 21:15:26 23° 71° (ENE) 21:18:49 437.405
PRISM 21 Apr 21:13:28 21:16:45 23° 289° (WNW) 21:19:55 437.425
BRITE-PL 21 Apr 21:20:35 21:24:44 81° 260° (W) 21:28:54 437.365/2234.400
PCSat 21 Apr 21:20:46 21:23:50 15° 255° (WSW) 21:26:36 145.827
SEEDS 21 Apr 21:29:44 21:33:47 46° 75° (ENE) 21:37:55 437.485
CANX-2 21 Apr 21:30:22 21:34:37 66° 77° (ENE) 21:38:55 2200.000
GOMX 1 21 Apr 21:30:49 21:34:57 81° 77° (ENE) 21:39:11 467.674
PHONESAT 2.4 21 Apr 21:32:14 21:35:37 38° 347° (NNW) 21:39:00 2401.200-2431.200
UWE-3 21 Apr 21:39:10 21:40:38 12° 67° (ENE) 21:42:21 435.000/436.395/437.385
CUTE 1.7 + AOD 2 21 Apr 21:40:10 21:44:27 78° 78° (ENE) 21:48:46 437.475
SO-50 21 Apr 21:43:15 21:46:36 18° 48° (NE) 21:50:05 436.795
VERMONT LUNAR 21 Apr 21:49:10 21:52:05 26° 359° (N) 21:55:00 437.305
STRAND 1 21 Apr 21:55:37 21:59:01 18° 293° (WNW) 22:02:13 437.568
AAUSAT CUBESAT 2 21 Apr 21:57:31 22:01:43 70° 77° (ENE) 22:05:56 437.432
FUNcube-1 21 Apr 21:59:33 22:02:05 16° 69° (ENE) 22:04:51 145.935
DELFI C3 21 Apr 22:02:39 22:05:55 24° 72° (ENE) 22:09:18 145.870
CINEMA 3 21 Apr 22:08:11 22:12:21 66° 76° (ENE) 22:16:43 145.822/145.860
UKube-1 21 Apr 22:12:47 22:14:57 14° 68° (ENE) 22:17:20 .
ZACube-1 21 Apr 22:21:50 22:25:30 29° 72° (ENE) 22:29:20 437.345
ISS 21 Apr 22:26:21 22:29:09 26° 229° (SW) 22:31:55 145.825
DOVE 4 21 Apr 22:29:16 22:32:58 30° 264° (W) 22:36:44 437.250
AISAT 21 Apr 22:30:39 22:31:15 10° 67° (ENE) 22:32:07 437.250
Oscar 11 21 Apr 22:31:00 22:35:20 78° 77° (ENE) 22:39:43 145.826/435.025
CUBEBUG 2 21 Apr 22:36:57 22:41:12 73° 76° (ENE) 22:45:36 437.445
HO-68 21 Apr 22:41:00 22:47:22 33° 264° (W) 22:53:37 435.675
Cosmos 2491 21 Apr 22:41:44 22:46:46 18° 83° (E) 22:52:22 435.465 / 435.565
RS-15 21 Apr 22:44:14 22:51:08 18° 28° (NNE) 22:58:43 29.354- 29.394
COMPASS 1 21 Apr 22:47:34 22:51:03 24° 265° (W) 22:54:28 437.405
HUMSAT D 21 Apr 22:52:42 22:56:23 31° 72° (ENE) 23:00:09 437.325/437.525
YUBILEINY 21 Apr 22:55:33 23:03:44 44° 76° (ENE) 23:11:57 435.215
DX 1 21 Apr 22:57:14 23:01:25 50° 74° (ENE) 23:05:38 434.975-435.025
50 SAT 21 Apr 23:07:47 23:11:08 27° 72° (ENE) 23:14:35 437.505
SEEDS 21 Apr 23:08:15 23:09:54 12° 270° (W) 23:11:18 437.485
PHONESAT 2.4 21 Apr 23:11:13 23:14:23 28° 3° (N) 23:17:33 2401.200-2431.200
UWE-3 21 Apr 23:12:35 23:16:44 50° 261° (W) 23:21:01 435.000/436.395/437.385
SO-50 21 Apr 23:22:41 23:27:31 52° 245° (WSW) 23:32:14 436.795
O/OREOS (USA 219) 21 Apr 23:24:01 23:28:04 32° 104° (ESE) 23:32:11 437.305
